QPF
0.00 0.00 0.00 0.00 0.00 0.00 0.00 0.00 0.00 0.00 0.00 0.00 0.00 0.00 0.00 0.00 0.00 0.00 0.01 0.01 0.01 0.01 0.01 0.01 0.02 0.03 0.03 0.02 0.02 0.02 0.02 0.03 0.03 0.04 0.03 0.03 0.02 0.02 0.02 0.02 0.02 0.01 0.02 0.03
0.00 0.00 0.00 0.00 0.00 0.00 0.00 0.00 0.00 0.00 0.00 0.00 0.00 0.00 0.00 0.00 0.00 0.01 0.01 0.01 0.01 0.01 0.02 0.03 0.04 0.04 0.04 0.03 0.03 0.03 0.02 0.03 0.03 0.03 0.03 0.03 0.02 0.02 0.02 0.02 0.02 0.02 0.02 0.02
0.01 0.01 0.00 0.00 0.00 0.00 0.00 0.00 0.00 0.00 0.00 0.00 0.00 0.00 0.00 0.00 0.01 0.01 0.01 0.01 0.01 0.01 0.03 0.04 0.05 0.04 0.04 0.03 0.03 0.03 0.02 0.03 0.03 0.03 0.03 0.02 0.02 0.01 0.02 0.02 0.02 0.02 0.03 0.03
0.00 0.01 0.00 0.00 0.00 0.00 0.00 0.00 0.00 0.00 0.00 0.00 0.01 0.00 0.00 0.00 0.00 0.01 0.01 0.02 0.02 0.03 0.05 0.06 0.05 0.04 0.03 0.03 0.03 0.04 0.04 0.05 0.04 0.04 0.03 0.02 0.02 0.02 0.02 0.02 0.03 0.04 0.04 0.04
0.00 0.00 0.00 0.00 0.00 0.00 0.00 0.00 0.00 0.00 0.00 0.01 0.02 0.01 0.01 0.01 0.01 0.01 0.01 0.02 0.05 0.09 0.11 0.08 0.05 0.03 0.03 0.03 0.03 0.03 0.03 0.03 0.03 0.03 0.03 0.02 0.02 0.02 0.02 0.02 0.03 0.04 0.07 0.09
0.00 0.00 0.00 0.00 0.00 0.00 0.00 0.00 0.00 0.01 0.01 0.01 0.02 0.01 0.01 0.01 0.01 0.01 0.01 0.01 0.04 0.07 0.06 0.03 0.02 0.02 0.02 0.03 0.03 0.02 0.03 0.03 0.02 0.02 0.02 0.02 0.02 0.02 0.02 0.02 0.02 0.03 0.06 0.07
0.00 0.00 0.00 0.00 0.00 0.00 0.00 0.00 0.00 0.00 0.01 0.01 0.01 0.01 0.01 0.02 0.01 0.00 0.01 0.00 0.00 0.01 0.01 0.01 0.01 0.02 0.01 0.01 0.01 0.02 0.03 0.03 0.02 0.02 0.02 0.01 0.02 0.03 0.04 0.03 0.02 0.02 0.03 0.06
0.00 0.00 0.00 0.00 0.00 0.00 0.00 0.00 0.00 0.00 0.00 0.01 0.01 0.01 0.03 0.02 0.01 0.00 0.00 0.00 0.00 0.01 0.01 0.01 0.01 0.02 0.02 0.02 0.01 0.01 0.02 0.02 0.02 0.03 0.02 0.02 0.02 0.02 0.03 0.04 0.03 0.02 0.02 0.05
0.00 0.00 0.00 0.00 0.00 0.00 0.00 0.00 0.00 0.00 0.01 0.01 0.01 0.02 0.01 0.01 0.01 0.01 0.00 0.01 0.01 0.01 0.01 0.01 0.01 0.02 0.03 0.03 0.02 0.01 0.02 0.02 0.03 0.03 0.03 0.03 0.03 0.03 0.02 0.05 0.07 0.05 0.03 0.04
0.01 0.00 0.00 0.00 0.00 0.00 0.00 0.00 0.00 0.00 0.00 0.00 0.00 0.01 0.01 0.01 0.01 0.01 0.00 0.01 0.01 0.01 0.01 0.01 0.02 0.02 0.02 0.02 0.01 0.01 0.02 0.02 0.02 0.02 0.02 0.02 0.03 0.03 0.02 0.02 0.04 0.05 0.04 0.04
0.01 0.01 0.00 0.00 0.00 0.00 0.00 0.00 0.00 0.00 0.00 0.00 0.00 0.00 0.01 0.00 0.00 0.00 0.00 0.01 0.00 0.00 0.01 0.01 0.01 0.01 0.01 0.01 0.01 0.01 0.01 0.01 0.01 0.01 0.01 0.02 0.02 0.02 0.02 0.02 0.02 0.04 0.06 0.06
0.01 0.01 0.00 0.00 0.00 0.00 0.00 0.00 0.00 0.00 0.00 0.00 0.00 0.00 0.00 0.00 0.00 0.00 0.00 0.00 0.00 0.01 0.01 0.01 0.01 0.01 0.02 0.01 0.01 0.02 0.01 0.02 0.01 0.01 0.01 0.02 0.02 0.02 0.02 0.01 0.01 0.02 0.05 0.06
0.00 0.00 0.00 0.00 0.00 0.00 0.00 0.01 0.00 0.00 0.00 0.01 0.00 0.00 0.00 0.00 0.00 0.00 0.00 0.00 0.01 0.01 0.02 0.02 0.01 0.02 0.02 0.02 0.02 0.02 0.02 0.02 0.02 0.02 0.02 0.02 0.02 0.02 0.02 0.02 0.02 0.02 0.02 0.04
0.01 0.01 0.01 0.01 0.00 0.00 0.00 0.00 0.00 0.00 0.00 0.01 0.01 0.00 0.00 0.00 0.00 0.00 0.00 0.01 0.00 0.01 0.01 0.02 0.02 0.02 0.02 0.03 0.03 0.04 0.04 0.04 0.04 0.02 0.02 0.01 0.02 0.01 0.02 0.02 0.01 0.01 0.01 0.02
0.00 0.01 0.01 0.01 0.00 0.00 0.00 0.01 0.01 0.01 0.01 0.01 0.00 0.00 0.00 0.01 0.00 0.01 0.01 0.01 0.01 0.01 0.01 0.01 0.02 0.02 0.02 0.02 0.02 0.02 0.02 0.02 0.02 0.02 0.01 0.01 0.01 0.01 0.01 0.01 0.01 0.01 0.01 0.02
0.01 0.01 0.01 0.01 0.00 0.00 0.01 0.01 0.01 0.01 0.01 0.01 0.00 0.00 0.00 0.01 0.01 0.01 0.01 0.01 0.02 0.02 0.02 0.02 0.02 0.01 0.01 0.01 0.02 0.02 0.02 0.02 0.02 0.02 0.02 0.01 0.01 0.01 0.01 0.01 0.01 0.01 0.01 0.02
0.01 0.01 0.01 0.01 0.01 0.01 0.01 0.02 0.02 0.01 0.01 0.01 0.01 0.01 0.01 0.01 0.01 0.01 0.01 0.01 0.01 0.02 0.02 0.02 0.01 0.01 0.01 0.01 0.01 0.01 0.01 0.02 0.01 0.01 0.01 0.01 0.01 0.01 0.02 0.02 0.02 0.02 0.02 0.03
0.01 0.01 0.01 0.01 0.01 0.02 0.02 0.02 0.02 0.01 0.01 0.01 0.01 0.01 0.01 0.01 0.01 0.01 0.01 0.01 0.01 0.01 0.01 0.00 0.01 0.01 0.01 0.00 0.00 0.01 0.01 0.01 0.01 0.01 0.01 0.01 0.01 0.01 0.01 0.02 0.03 0.03 0.03 0.03
0.01 0.01 0.00 0.01 0.01 0.02 0.02 0.02 0.02 0.01 0.01 0.00 0.00 0.01 0.01 0.01 0.01 0.02 0.02 0.02 0.01 0.02 0.01 0.00 0.01 0.00 0.00 0.01 0.00 0.00 0.00 0.01 0.01 0.01 0.01 0.00 0.00 0.00 0.01 0.01 0.02 0.02 0.03 0.03
0.01 0.01 0.01 0.01 0.01 0.02 0.02 0.02 0.01 0.01 0.01 0.01 0.00 0.00 0.00 0.01 0.01 0.01 0.02 0.02 0.01 0.01 0.01 0.01 0.01 0.00 0.01 0.01 0.01 0.00 0.00 0.01 0.01 0.01 0.01 0.00 0.00 0.00 0.01 0.01 0.01 0.02 0.02 0.02
0.02 0.02 0.01 0.01 0.01 0.02 0.02 0.02 0.02 0.02 0.01 0.00 0.00 0.00 0.00 0.01 0.01 0.01 0.01 0.01 0.01 0.01 0.01 0.01 0.01 0.01 0.01 0.01 0.01 0.00 0.01 0.01 0.01 0.01 0.01 0.00 0.00 0.01 0.01 0.01 0.01 0.01 0.02 0.03
0.03 0.02 0.02 0.02 0.02 0.02 0.02 0.02 0.02 0.02 0.01 0.01 0.00 0.01 0.01 0.01 0.01 0.01 0.01 0.01 0.01 0.01 0.01 0.01 0.01 0.01 0.01 0.01 0.01 0.01 0.01 0.01 0.01 0.01 0.01 0.01 0.01 0.01 0.01 0.01 0.01 0.01 0.01 0.02
0.03 0.03 0.03 0.03 0.02 0.02 0.02 0.02 0.02 0.01 0.01 0.01 0.01 0.01 0.02 0.01 0.01 0.01 0.01 0.01 0.01 0.01 0.01 0.01 0.01 0.01 0.01 0.01 0.01 0.01 0.01 0.01 0.01 0.01 0.01 0.01 0.01 0.02 0.01 0.01 0.01 0.01 0.01 0.02
0.05 0.04 0.03 0.02 0.02 0.02 0.01 0.01 0.01 0.01 0.00 0.01 0.01 0.01 0.01 0.01 0.01 0.01 0.01 0.01 0.01 0.01 0.01 0.01 0.01 0.01 0.01 0.01 0.01 0.01 0.02 0.02 0.02 0.02 0.02 0.03 0.03 0.03 0.03 0.03 0.02 0.02 0.02 0.02
0.05 0.04 0.04 0.03 0.02 0.02 0.02 0.01 0.01 0.01 0.01 0.01 0.01 0.01 0.02 0.02 0.01 0.01 0.01 0.01 0.01 0.01 0.01 0.01 0.01 0.01 0.01 0.01 0.01 0.01 0.01 0.02 0.02 0.02 0.03 0.04 0.05 0.05 0.06 0.06 0.05 0.04 0.04 0.04
0.07 0.07 0.06 0.05 0.03 0.03 0.02 0.02 0.02 0.02 0.02 0.01 0.01 0.01 0.01 0.01 0.01 0.01 0.01 0.01 0.01 0.01 0.01 0.01 0.01 0.01 0.01 0.01 0.01 0.01 0.01 0.02 0.02 0.02 0.03 0.03 0.04 0.04 0.05 0.05 0.05 0.05 0.04 0.03
0.08 0.07 0.07 0.07 0.07 0.06 0.04 0.03 0.03 0.02 0.02 0.02 0.01 0.01 0.01 0.01 0.01 0.01 0.01 0.01 0.01 0.01 0.01 0.02 0.01 0.01 0.01 0.02 0.01 0.01 0.01 0.01 0.01 0.02 0.02 0.02 0.02 0.02 0.02 0.02 0.02 0.02 0.02 0.01
MSLP
1010.99 1010.88 1010.78 1010.70 1010.65 1010.64 1010.67 1010.71 1010.76 1010.80 1010.83 1010.84 1010.85 1010.85 1010.88 1010.92 1010.99 1011.08 1011.17 1011.24 1011.27 1011.25 1011.16 1011.03 1010.85 1010.66 1010.47 1010.32 1010.21 1010.16 1010.15 1010.18 1010.23 1010.28 1010.32 1010.33 1010.33 1010.32 1010.32 1010.35 1010.40 1010.50 1010.62 1010.76
1011.10 1010.95 1010.76 1010.55 1010.35 1010.18 1010.05 1009.97 1009.95 1009.97 1010.03 1010.13 1010.25 1010.40 1010.56 1010.74 1010.91 1011.08 1011.22 1011.32 1011.37 1011.37 1011.31 1011.19 1011.04 1010.86 1010.68 1010.52 1010.38 1010.27 1010.20 1010.14 1010.10 1010.07 1010.04 1010.01 1009.97 1009.95 1009.95 1009.98 1010.03 1010.11 1010.21 1010.31
1011.12 1010.93 1010.67 1010.35 1010.02 1009.71 1009.46 1009.28 1009.18 1009.18 1009.26 1009.42 1009.64 1009.90 1010.17 1010.45 1010.71 1010.94 1011.13 1011.27 1011.36 1011.39 1011.37 1011.30 1011.19 1011.06 1010.91 1010.76 1010.60 1010.46 1010.31 1010.18 1010.05 1009.92 1009.81 1009.71 1009.64 1009.59 1009.57 1009.58 1009.63 1009.69 1009.75 1009.80
1010.96 1010.73 1010.40 1010.00 1009.56 1009.15 1008.79 1008.53 1008.40 1008.38 1008.49 1008.71 1009.01 1009.36 1009.73 1010.10 1010.44 1010.73 1010.97 1011.16 1011.29 1011.36 1011.39 1011.38 1011.33 1011.26 1011.15 1011.02 1010.86 1010.68 1010.48 1010.27 1010.05 1009.83 1009.64 1009.47 1009.34 1009.25 1009.20 1009.19 1009.21 1009.23 1009.25 1009.25
1010.55 1010.27 1009.87 1009.39 1008.88 1008.39 1007.97 1007.67 1007.51 1007.52 1007.67 1007.96 1008.35 1008.80 1009.27 1009.72 1010.14 1010.50 1010.80 1011.03 1011.20 1011.33 1011.41 1011.46 1011.48 1011.45 1011.39 1011.28 1011.13 1010.93 1010.68 1010.41 1010.11 1009.81 1009.54 1009.30 1009.11 1008.97 1008.88 1008.84 1008.82 1008.81 1008.79 1008.72
1009.89 1009.52 1009.05 1008.50 1007.93 1007.39 1006.94 1006.64 1006.50 1006.55 1006.77 1007.15 1007.64 1008.20 1008.78 1009.34 1009.85 1010.28 1010.64 1010.93 1011.15 1011.32 1011.46 1011.55 1011.62 1011.64 1011.62 1011.54 1011.39 1011.18 1010.91 1010.58 1010.23 1009.87 1009.53 1009.23 1008.99 1008.81 1008.68 1008.60 1008.54 1008.48 1008.41 1008.29
1009.00 1008.54 1007.99 1007.37 1006.75 1006.19 1005.73 1005.45 1005.35 1005.47 1005.79 1006.28 1006.90 1007.58 1008.28 1008.95 1009.56 1010.08 1010.51 1010.85 1011.12 1011.34 1011.51 1011.65 1011.75 1011.81 1011.82 1011.76 1011.63 1011.42 1011.14 1010.79 1010.41 1010.01 1009.63 1009.29 1009.00 1008.78 1008.61 1008.49 1008.39 1008.29 1008.17 1008.00
1008.01 1007.43 1006.79 1006.11 1005.45 1004.87 1004.43 1004.18 1004.15 1004.35 1004.77 1005.38 1006.12 1006.94 1007.77 1008.56 1009.27 1009.88 1010.38 1010.78 1011.09 1011.34 1011.55 1011.71 1011.84 1011.93 1011.96 1011.93 1011.82 1011.63 1011.35 1011.01 1010.62 1010.22 1009.82 1009.45 1009.14 1008.88 1008.68 1008.52 1008.39 1008.25 1008.08 1007.88
1007.02 1006.34 1005.61 1004.88 1004.19 1003.60 1003.17 1002.96 1002.99 1003.26 1003.78 1004.50 1005.36 1006.29 1007.24 1008.14 1008.95 1009.64 1010.22 1010.67 1011.03 1011.31 1011.54 1011.72 1011.87 1011.98 1012.03 1012.03 1011.95 1011.78 1011.54 1011.22 1010.85 1010.46 1010.06 1009.69 1009.36 1009.09 1008.86 1008.67 1008.50 1008.32 1008.13 1007.89
1006.19 1005.42 1004.62 1003.84 1003.13 1002.53 1002.12 1001.93 1002.00 1002.34 1002.92 1003.71 1004.66 1005.68 1006.72 1007.70 1008.60 1009.37 1010.00 1010.51 1010.91 1011.22 1011.46 1011.67 1011.83 1011.96 1012.04 1012.06 1012.01 1011.88 1011.68 1011.40 1011.06 1010.69 1010.31 1009.95 1009.62 1009.33 1009.08 1008.86 1008.66 1008.46 1008.24 1007.99
1005.60 1004.77 1003.94 1003.14 1002.41 1001.81 1001.40 1001.23 1001.31 1001.67 1002.28 1003.10 1004.08 1005.15 1006.24 1007.28 1008.23 1009.06 1009.75 1010.30 1010.73 1011.07 1011.34 1011.56 1011.74 1011.88 1011.98 1012.03 1012.02 1011.92 1011.76 1011.52 1011.22 1010.88 1010.52 1010.16 1009.83 1009.53 1009.26 1009.02 1008.80 1008.59 1008.36 1008.10
1005.28 1004.45 1003.62 1002.82 1002.10 1001.51 1001.10 1000.91 1000.99 1001.32 1001.92 1002.72 1003.70 1004.77 1005.86 1006.92 1007.90 1008.75 1009.48 1010.06 1010.53 1010.90 1011.19 1011.43 1011.63 1011.79 1011.91 1011.97 1011.98 1011.91 1011.77 1011.56 1011.28 1010.97 1010.62 1010.27 1009.94 1009.63 1009.35 1009.10 1008.87 1008.64 1008.41 1008.16
1005.17 1004.39 1003.60 1002.84 1002.15 1001.57 1001.16 1000.96 1001.00 1001.30 1001.84 1002.59 1003.52 1004.55 1005.61 1006.66 1007.63 1008.50 1009.24 1009.86 1010.36 1010.75 1011.07 1011.33 1011.54 1011.71 1011.83 1011.90 1011.91 1011.85 1011.72 1011.51 1011.25 1010.94 1010.60 1010.25 1009.91 1009.60 1009.31 1009.05 1008.82 1008.60 1008.38 1008.14
1005.15 1004.46 1003.75 1003.06 1002.42 1001.88 1001.47 1001.26 1001.27 1001.52 1002.00 1002.68 1003.53 1004.49 1005.51 1006.51 1007.47 1008.33 1009.09 1009.72 1010.24 1010.66 1011.00 1011.27 1011.48 1011.65 1011.76 1011.81 1011.81 1011.73 1011.58 1011.37 1011.09 1010.77 1010.43 1010.08 1009.75 1009.43 1009.15 1008.90 1008.67 1008.47 1008.27 1008.07
1005.09 1004.51 1003.91 1003.31 1002.75 1002.26 1001.89 1001.68 1001.67 1001.88 1002.29 1002.91 1003.68 1004.57 1005.53 1006.49 1007.41 1008.26 1009.01 1009.66 1010.19 1010.62 1010.97 1011.24 1011.45 1011.59 1011.68 1011.70 1011.65 1011.54 1011.35 1011.11 1010.81 1010.48 1010.13 1009.79 1009.46 1009.16 1008.89 1008.66 1008.47 1008.29 1008.13 1007.96
1004.86 1004.40 1003.92 1003.43 1002.96 1002.54 1002.23 1002.05 1002.05 1002.24 1002.62 1003.18 1003.90 1004.73 1005.63 1006.54 1007.43 1008.26 1009.00 1009.64 1010.18 1010.62 1010.96 1011.21 1011.40 1011.50 1011.55 1011.51 1011.42 1011.25 1011.02 1010.74 1010.42 1010.08 1009.73 1009.40 1009.09 1008.82 1008.59 1008.40 1008.25 1008.12 1008.00 1007.88
1004.39 1004.04 1003.67 1003.29 1002.93 1002.61 1002.37 1002.26 1002.29 1002.50 1002.87 1003.42 1004.10 1004.89 1005.75 1006.62 1007.48 1008.28 1009.01 1009.64 1010.16 1010.58 1010.90 1011.13 1011.28 1011.34 1011.33 1011.24 1011.08 1010.86 1010.59 1010.28 1009.95 1009.60 1009.27 1008.97 1008.70 1008.48 1008.30 1008.17 1008.07 1008.00 1007.93 1007.86
1003.70 1003.44 1003.17 1002.89 1002.63 1002.41 1002.27 1002.23 1002.34 1002.59 1002.99 1003.55 1004.23 1005.00 1005.83 1006.68 1007.51 1008.28 1008.98 1009.58 1010.08 1010.47 1010.76 1010.95 1011.05 1011.06 1011.00 1010.86 1010.65 1010.39 1010.09 1009.77 1009.43 1009.11 1008.81 1008.55 1008.34 1008.18 1008.07 1008.01 1007.97 1007.95 1007.93 1007.90
1002.88 1002.68 1002.48 1002.28 1002.11 1001.99 1001.95 1002.01 1002.19 1002.52 1002.97 1003.56 1004.26 1005.03 1005.84 1006.67 1007.46 1008.20 1008.86 1009.43 1009.89 1010.25 1010.50 1010.65 1010.71 1010.68 1010.58 1010.40 1010.16 1009.89 1009.58 1009.26 1008.94 1008.65 1008.40 1008.20 1008.06 1007.97 1007.94 1007.93 1007.96 1007.99 1008.01 1008.01
1002.10 1001.92 1001.76 1001.62 1001.52 1001.48 1001.53 1001.68 1001.95 1002.35 1002.86 1003.49 1004.21 1004.98 1005.78 1006.58 1007.34 1008.04 1008.66 1009.19 1009.61 1009.93 1010.15 1010.27 1010.30 1010.24 1010.12 1009.92 1009.68 1009.41 1009.11 1008.82 1008.55 1008.30 1008.11 1007.98 1007.90 1007.87 1007.90 1007.95 1008.01 1008.08 1008.12 1008.13
1001.52 1001.33 1001.18 1001.07 1001.02 1001.04 1001.16 1001.38 1001.72 1002.18 1002.74 1003.40 1004.13 1004.90 1005.68 1006.44 1007.16 1007.82 1008.39 1008.88 1009.26 1009.55 1009.74 1009.85 1009.87 1009.81 1009.69 1009.51 1009.29 1009.04 1008.78 1008.53 1008.30 1008.10 1007.96 1007.88 1007.85 1007.88 1007.94 1008.02 1008.12 1008.19 1008.24 1008.26
1001.26 1001.05 1000.89 1000.78 1000.75 1000.81 1000.97 1001.24 1001.62 1002.11 1002.70 1003.37 1004.08 1004.83 1005.57 1006.29 1006.96 1007.57 1008.09 1008.54 1008.89 1009.16 1009.35 1009.45 1009.49 1009.45 1009.36 1009.22 1009.03 1008.82 1008.61 1008.40 1008.21 1008.05 1007.95 1007.90 1007.90 1007.95 1008.03 1008.12 1008.22 1008.30 1008.34 1008.34
1001.39 1001.15 1000.96 1000.85 1000.81 1000.88 1001.05 1001.33 1001.72 1002.22 1002.79 1003.43 1004.12 1004.82 1005.50 1006.16 1006.77 1007.32 1007.80 1008.21 1008.55 1008.81 1009.01 1009.13 1009.20 1009.21 1009.16 1009.06 1008.92 1008.76 1008.58 1008.40 1008.24 1008.11 1008.02 1007.98 1007.99 1008.03 1008.11 1008.19 1008.28 1008.35 1008.38 1008.38
1001.87 1001.61 1001.40 1001.26 1001.21 1001.26 1001.42 1001.68 1002.05 1002.51 1003.04 1003.63 1004.25 1004.87 1005.48 1006.07 1006.61 1007.10 1007.53 1007.91 1008.24 1008.50 1008.72 1008.88 1008.99 1009.04 1009.04 1008.99 1008.90 1008.77 1008.62 1008.46 1008.31 1008.18 1008.08 1008.03 1008.02 1008.04 1008.10 1008.17 1008.25 1008.32 1008.35 1008.35
1002.61 1002.33 1002.10 1001.94 1001.87 1001.89 1002.01 1002.24 1002.56 1002.95 1003.41 1003.92 1004.44 1004.97 1005.49 1005.99 1006.45 1006.88 1007.27 1007.62 1007.93 1008.20 1008.44 1008.63 1008.78 1008.87 1008.92 1008.91 1008.84 1008.74 1008.60 1008.44 1008.28 1008.13 1008.01 1007.93 1007.89 1007.89 1007.93 1008.00 1008.08 1008.16 1008.22 1008.26
1003.46 1003.17 1002.93 1002.76 1002.66 1002.65 1002.74 1002.91 1003.16 1003.47 1003.84 1004.24 1004.66 1005.08 1005.49 1005.89 1006.26 1006.62 1006.95 1007.27 1007.56 1007.83 1008.08 1008.29 1008.46 1008.58 1008.65 1008.66 1008.61 1008.51 1008.36 1008.19 1008.01 1007.83 1007.68 1007.57 1007.51 1007.50 1007.55 1007.63 1007.74 1007.86 1007.98 1008.08
1004.23 1003.96 1003.73 1003.55 1003.44 1003.41 1003.45 1003.56 1003.74 1003.97 1004.23 1004.52 1004.82 1005.12 1005.42 1005.71 1005.99 1006.26 1006.53 1006.80 1007.06 1007.31 1007.55 1007.76 1007.93 1008.05 1008.12 1008.13 1008.07 1007.95 1007.79 1007.59 1007.38 1007.18 1007.01 1006.89 1006.83 1006.84 1006.91 1007.04 1007.21 1007.41 1007.62 1007.82
Thickness
5786 5793 5794 5791 5791 5792 5789 5792 5788 5790 5792 5795 5796 5797 5796 5795 5794 5793 5792 5791 5790 5788 5787 5785 5783 5780 5778 5775 5773 5769 5764 5759 5755 5751 5748 5744 5739 5735 5731 5728 5726 5722 5718 5715
5772 5782 5785 5782 5786 5788 5787 5789 5788 5788 5787 5796 5795 5793 5789 5787 5785 5783 5783 5783 5783 5782 5780 5777 5775 5772 5770 5767 5764 5761 5756 5752 5749 5745 5741 5737 5733 5728 5725 5722 5719 5715 5712 5709
5763 5773 5771 5766 5780 5782 5781 5785 5785 5779 5783 5786 5782 5779 5779 5780 5779 5777 5777 5777 5776 5775 5773 5770 5769 5766 5762 5759 5757 5754 5749 5745 5742 5738 5734 5730 5727 5722 5719 5715 5712 5708 5706 5703
5760 5754 5740 5771 5788 5785 5779 5778 5781 5780 5779 5778 5775 5774 5775 5775 5772 5770 5770 5770 5769 5768 5766 5765 5763 5760 5756 5753 5749 5746 5742 5738 5735 5731 5727 5723 5720 5716 5712 5709 5705 5702 5699 5697
5751 5747 5753 5764 5773 5775 5769 5765 5774 5772 5770 5770 5771 5768 5766 5768 5766 5764 5764 5763 5762 5762 5761 5758 5755 5752 5748 5744 5741 5737 5734 5731 5729 5725 5720 5716 5713 5709 5706 5702 5698 5695 5693 5690
5742 5736 5739 5758 5772 5775 5765 5753 5765 5765 5761 5761 5761 5755 5754 5757 5757 5756 5756 5756 5754 5754 5752 5748 5746 5743 5739 5736 5733 5729 5726 5724 5721 5718 5713 5709 5706 5702 5699 5696 5692 5690 5687 5684
5734 5734 5746 5757 5763 5761 5742 5746 5758 5758 5755 5753 5750 5749 5748 5748 5747 5747 5746 5746 5745 5744 5741 5739 5737 5734 5730 5727 5724 5722 5719 5716 5712 5709 5705 5702 5698 5694 5691 5688 5685 5681 5679 5676
5729 5726 5731 5749 5750 5745 5743 5750 5751 5749 5747 5744 5742 5742 5740 5738 5737 5737 5736 5735 5735 5733 5731 5730 5728 5725 5720 5717 5716 5714 5710 5706 5703 5700 5698 5695 5690 5687 5683 5679 5676 5673 5671 5668
5728 5726 5732 5739 5739 5741 5744 5740 5740 5740 5739 5736 5733 5731 5730 5728 5727 5726 5726 5725 5724 5723 5721 5720 5718 5716 5711 5709 5707 5704 5700 5697 5694 5691 5688 5685 5682 5679 5676 5671 5670 5667 5665 5662
5717 5721 5725 5728 5731 5732 5733 5731 5732 5731 5729 5727 5723 5722 5719 5718 5717 5716 5715 5715 5715 5713 5711 5709 5708 5706 5704 5701 5698 5694 5691 5688 5686 5682 5679 5676 5673 5671 5669 5665 5662 5659 5656 5653
5705 5710 5713 5716 5718 5720 5721 5722 5721 5720 5720 5717 5714 5711 5709 5707 5707 5706 5705 5705 5704 5702 5700 5699 5698 5696 5695 5692 5689 5685 5682 5679 5677 5675 5672 5667 5664 5661 5659 5656 5653 5648 5646 5644
5700 5704 5703 5703 5709 5711 5709 5708 5709 5708 5707 5707 5705 5701 5700 5699 5698 5697 5696 5695 5694 5693 5692 5690 5688 5686 5685 5682 5679 5676 5674 5671 5670 5667 5662 5659 5655 5651 5646 5644 5640 5637 5633 5631
5695 5697 5696 5696 5698 5699 5698 5698 5699 5698 5697 5695 5695 5693 5692 5690 5689 5688 5687 5685 5684 5683 5682 5681 5679 5678 5675 5673 5670 5667 5664 5662 5660 5657 5654 5650 5647 5643 5640 5635 5631 5628 5625 5621
5684 5683 5681 5684 5686 5688 5688 5689 5689 5688 5688 5687 5685 5684 5683 5681 5680 5679 5678 5677 5677 5676 5674 5672 5670 5668 5666 5664 5661 5658 5656 5653 5650 5647 5645 5642 5639 5636 5634 5631 5627 5623 5618 5612
5672 5674 5674 5676 5676 5676 5677 5678 5676 5676 5675 5675 5674 5673 5672 5671 5670 5670 5669 5669 5668 5666 5665 5663 5660 5658 5656 5654 5651 5648 5646 5644 5641 5639 5636 5633 5630 5627 5625 5622 5620 5616 5613 5608
5663 5665 5665 5664 5664 5666 5667 5666 5666 5665 5665 5664 5664 5663 5663 5663 5662 5661 5660 5659 5657 5656 5654 5652 5650 5648 5646 5644 5641 5639 5636 5631 5629 5629 5627 5625 5621 5618 5615 5613 5611 5608 5606 5604
5652 5652 5653 5653 5655 5656 5657 5657 5656 5656 5655 5655 5655 5655 5654 5652 5651 5650 5650 5650 5648 5647 5645 5643 5641 5639 5637 5635 5632 5631 5628 5624 5619 5620 5619 5617 5614 5611 5608 5605 5602 5600 5599 5597
5648 5648 5647 5647 5647 5646 5646 5646 5646 5646 5646 5646 5646 5645 5644 5642 5641 5640 5640 5640 5638 5637 5636 5635 5632 5629 5627 5626 5623 5622 5620 5618 5615 5613 5611 5608 5605 5603 5601 5598 5595 5593 5591 5589
5639 5639 5639 5639 5639 5639 5638 5637 5637 5636 5636 5636 5635 5634 5633 5633 5632 5632 5631 5630 5629 5627 5626 5625 5619 5620 5619 5617 5613 5613 5612 5611 5608 5606 5603 5598 5597 5596 5593 5591 5588 5586 5584 5581
5630 5631 5631 5631 5631 5631 5630 5630 5628 5627 5627 5627 5625 5624 5624 5624 5624 5623 5622 5621 5621 5620 5617 5614 5613 5612 5610 5608 5603 5605 5605 5603 5601 5599 5596 5594 5592 5589 5586 5584 5581 5579 5576 5574
5622 5623 5623 5623 5623 5623 5622 5621 5619 5617 5617 5617 5616 5616 5615 5615 5614 5614 5614 5614 5612 5610 5608 5604 5606 5605 5604 5600 5596 5599 5598 5596 5594 5591 5590 5588 5585 5582 5579 5577 5574 5572 5570 5568
5617 5617 5617 5617 5616 5615 5614 5613 5612 5610 5609 5608 5608 5608 5607 5606 5606 5606 5606 5606 5604 5599 5600 5601 5600 5596 5593 5589 5593 5593 5592 5590 5588 5586 5583 5581 5578 5575 5573 5570 5567 5565 5564 5562
5611 5611 5611 5610 5609 5608 5606 5606 5605 5603 5601 5600 5600 5600 5600 5600 5601 5601 5600 5599 5597 5591 5592 5593 5589 5585 5581 5584 5587 5586 5585 5583 5581 5579 5576 5574 5571 5568 5565 5563 5561 5559 5557 5556
5604 5604 5603 5603 5602 5600 5599 5599 5599 5597 5595 5594 5594 5594 5593 5594 5594 5595 5593 5587 5585 5583 5586 5583 5579 5577 5574 5580 5581 5579 5578 5576 5573 5571 5569 5567 5565 5562 5560 5558 5556 5555 5553 5551
5596 5597 5597 5596 5595 5595 5594 5593 5592 5590 5590 5590 5590 5589 5589 5588 5588 5587 5585 5582 5578 5577 5579 5577 5573 5571 5572 5575 5575 5573 5571 5569 5566 5564 5562 5561 5559 5557 5555 5553 5552 5550 5549 5547
5591 5591 5591 5591 5592 5591 5592 5590 5588 5587 5586 5585 5585 5584 5584 5582 5581 5579 5577 5576 5575 5572 5573 5573 5572 5569 5570 5570 5569 5567 5565 5563 5561 5559 5557 5555 5553 5551 5550 5549 5547 5546 5544 5543
5587 5588 5587 5589 5589 5589 5588 5586 5584 5583 5582 5581 5579 5579 5578 5576 5575 5573 5572 5571 5570 5570 5569 5568 5568 5566 5565 5564 5562 5560 5558 5557 5555 5553 5551 5549 5548 5546 5545 5543 5542 5541 5539 5538